Find Starlink 31593

NORAD ID: 59350 Int'l Des: 2024-060 Owner: SPXS Country: US Constellation: starlink operational
LEOCIRCULAR

Current View

Loading 3D Globe...

About Starlink 31593

Starlink 31593 (NORAD 59350) is a starlink constellation satellite (v2 mini) launched Mar 31, 2024 by SPXS of US. It operates in LEO, CIRCULAR orbit with a mass of 730.00 kg.

Upcoming Passes

Passes for default location (London). Set your location on the main map for personalized predictions.

Altitude History

Loading altitude history...

Two-Line Element Set

1 59350U 24060C 26230.23550983 .00000570 00000-0 30229-4 0 9994
2 59350 43.0035 67.1453 0001317 276.1494 83.9208 15.27576343134775
Epoch: Aug 18, 2026 • Age: 12 hours

Current Status

Altitude 495.0 km
Apogee / Perigee N/A
Velocity 7.62 km/s
Sub-Earth Point -41.93°S, 115.85°E
Launch Date Mar 31, 2024
Age 2.3 years
Type internet

Technical Details

Classification Payload
Mass 730.00 kg
Dry Mass 700.00 kg
Total Mass 730.00 kg
Length 0.30 m
Diameter 4.10 m
Span 29.00 m
Shape Box + pan
Manufacturer SPXS
Bus Type Starlink V2M
Phase Status In Orbit
Owner/State SPXS/US

Most Searched